Location: Newark
(47.4833°N, 7.5167°E)
Time: 01:37:19
(UTC+00:00)

N. Korean satellite - Pass Details

Date: 21 October 2019
Orbit: 456 x 506 km, 97.2° (Epoch: 14 November)

Event Time Altitude Azimuth Distance (km) Brightness Sun altitude
Rises 04:21:33 0° 31° (NNE) 2,561 10.7 -16.7°
Reaches altitude 10° 04:24:30 10° 59° (ENE) 1,686 10.2 -16.2°
Maximum altitude 04:26:24 14° 90° (E) 1,471 10.2 -15.9°
Drops below altitude 10° 04:28:19 10° 122° (ESE) 1,692 10.2 -15.6°
Sets 04:31:17 0° 149° (SSE) 2,577 10.7 -15.1°
